Overview Statistics Trail Chart Weather Telemetry Raw packets
 

This is the latest recevied weather packets stored in our database for station/object KC9DRE. If no packets are shown the sender has not sent any weather packets the latest 10 day(s).

<< 19 20 21 22 23 24 25 >>
Time Temp. Humidity Pressure Rain* Wind** Luminosity Snow
1777771885 6.67° C 74% 1018.6 hPa 0 mm - 0 W/m² -
1777771582 6.67° C 73% 1018.7 hPa 0 mm - 0 W/m² -
1777771278 7.22° C 72% 1018.6 hPa 0 mm - 0 W/m² -
1777770975 7.22° C 72% 1018.4 hPa 0 mm - 0 W/m² -
1777770672 7.78° C 72% 1018.5 hPa 0 mm - 0 W/m² -
1777770368 7.78° C 69% 1018.4 hPa 0 mm - 0 W/m² -
1777770066 8.33° C 69% 1018.4 hPa 0 mm - 0 W/m² -
1777769763 8.89° C 68% 1018.2 hPa 0 mm - 0 W/m² -
1777769460 8.89° C 66% 1018.1 hPa 0 mm - 0 W/m² -
1777769156 9.44° C 63% 1018.2 hPa 0 mm - 1 W/m² -
1777768855 9.44° C 63% 1018.2 hPa 0 mm - 2 W/m² -
1777768551 10° C 62% 1017.9 hPa 0 mm - 3 W/m² -
1777768248 10° C 64% 1017.9 hPa 0 mm - 5 W/m² -
1777767945 10° C 62% 1017.9 hPa 0 mm - 8 W/m² -
1777767642 10° C 58% 1017.7 hPa 0 mm - 12 W/m² -
1777767338 10.56° C 60% 1017.8 hPa 0 mm - 16 W/m² -
1777767036 11.11° C 56% 1017.7 hPa 0 mm - 19 W/m² -
1777766733 11.11° C 53% 1017.4 hPa 0 mm - 24 W/m² -
1777766430 11.67° C 54% 1017.5 hPa 0 mm - 26 W/m² -
1777766126 11.67° C 53% 1017.5 hPa 0 mm - 32 W/m² -
1777765824 11.67° C 52% 1017.4 hPa 0 mm - 37 W/m² -
1777765520 12.22° C 53% 1017.4 hPa 0 mm - 41 W/m² -
1777765218 12.22° C 56% 1017.4 hPa 0 mm - 51 W/m² -
1777764913 11.67° C 58% 1017.5 hPa 0 mm - 54 W/m² -
1777764619 11.67° C 56% 1017.4 hPa 0 mm - 57 W/m² -

* Rain latest hour (hover to see other rain measurements)
** Current wind speed in m/s (hover to see current wind gust speed)